,,PA_Meas_PMT16A,,PR_Meas_QMR101_102,,RH_Meas_QMH101,,SR_Meas_QMS101,,TA_Meas_QMH101,,GenWind,,GenWind,
time,status,PA,status,PR,status,RH,status,SR,status,TA,status,DirAvg,status,SpdAvg,
2012-02-15, 00:00:04,VALID,917.654,VALID,0,VALID,97.6102,VALID,0,VALID,20.3659,VALID,187,VALID,0.208594,
2012-02-15, 00:01:04,VALID,917.688,VALID,0,VALID,97.6178,VALID,0,VALID,20.4064,VALID,187,VALID,0.357812,
2012-02-15, 00:02:04,VALID,917.645,VALID,0,VALID,97.6026,VALID,0,VALID,20.4049,VALID,187,VALID,0.294922,
2012-02-15, 00:03:04,VALID,917.682,VALID,0,VALID,97.6026,VALID,0,VALID,20.3854,VALID,187,VALID,0.408984,
2012-02-15, 00:04:04,VALID,917.681,VALID,0,VALID,97.6102,VALID,0,VALID,20.3854,VALID,187,VALID,0.484766,
2012-02-15, 00:05:04,VALID,917.682,VALID,0,VALID,97.5873,VALID,0,VALID,20.3659,VALID,187,VALID,0.545313,
2012-02-15, 00:06:04,VALID,917.685,VALID,0,VALID,97.6178,VALID,0,VALID,20.3659,VALID,187,VALID,0.449609,
2012-02-15, 00:07:04,VALID,917.682,VALID,0,VALID,97.6255,VALID,0,VALID,20.4064,VALID,187,VALID,0.319141,
2012-02-15, 00:08:04,VALID,917.696,VALID,0,VALID,97.6255,VALID,0,VALID,20.3854,VALID,187,VALID,0,
2012-02-15, 00:09:04,VALID,917.684,VALID,0,VALID,97.6026,VALID,0,VALID,20.3854,VALID,187,VALID,0,
2012-02-15, 00:10:04,VALID,917.655,VALID,0,VALID,97.6026,VALID,0,VALID,20.3854,VALID,187,VALID,0,
2012-02-15, 00:11:04,VALID,917.654,VALID,0,VALID,97.5873,VALID,0,VALID,20.3659,VALID,187,VALID,0.273438,
2012-02-15, 00:12:04,VALID,917.646,VALID,0,VALID,97.6026,VALID,0,VALID,20.3659,VALID,187,VALID,0.45,
2012-02-15, 00:13:04,VALID,917.646,VALID,0,VALID,97.6102,VALID,0.107441,VALID,20.3643,VALID,187,VALID,0.473437,
2012-02-15, 00:14:04,VALID,917.634,VALID,0,VALID,97.6255,VALID,0,VALID,20.3643,VALID,187,VALID,0.261719,
2012-02-15, 00:15:04,VALID,917.613,VALID,0,VALID,97.6178,VALID,0,VALID,20.3838,VALID,187,VALID,0,
2012-02-15, 00:16:04,VALID,917.638,VALID,0,VALID,97.6255,VALID,0,VALID,20.4228,VALID,187,VALID,0,
2012-02-15, 00:17:04,VALID,917.614,VALID,0,VALID,97.6255,VALID,0,VALID,20.4033,VALID,187,VALID,0,
2012-02-15, 00:18:04,VALID,917.599,VALID,0,VALID,97.6255,VALID,0,VALID,20.4423,VALID,187,VALID,0,
2012-02-15, 00:19:04,VALID,917.582,VALID,0,VALID,97.6331,VALID,0,VALID,20.4829,VALID,187,VALID,0.228516,
2012-02-15, 00:20:04,VALID,917.587,VALID,0,VALID,97.6255,VALID,0,VALID,20.5024,VALID,187,VALID,0.286328,
2012-02-15, 00:21:04,VALID,917.522,VALID,0,VALID,97.6178,VALID,0,VALID,20.4813,VALID,187,VALID,0.6125,
2012-02-15, 00:22:04,VALID,917.538,VALID,0,VALID,97.6178,VALID,0,VALID,20.4423,VALID,187,VALID,0.444531,
2012-02-15, 00:23:04,VALID,917.487,VALID,0,VALID,97.6255,VALID,0,VALID,20.3838,VALID,187,VALID,0.158203,
2012-02-15, 00:24:04,VALID,917.485,VALID,0,VALID,97.5873,VALID,0,VALID,20.3448,VALID,187,VALID,0.0636719,
2012-02-15, 00:25:04,VALID,917.464,VALID,0,VALID,97.6026,VALID,0,VALID,20.3464,VALID,187,VALID,0,
2012-02-15, 00:26:04,VALID,917.407,VALID,0,VALID,97.595,VALID,0,VALID,20.3448,VALID,187,VALID,0,
2012-02-15, 00:27:04,VALID,917.416,VALID,0,VALID,97.6178,VALID,0,VALID,20.3659,VALID,187,VALID,0,
2012-02-15, 00:28:04,VALID,917.402,VALID,0,VALID,97.6178,VALID,0,VALID,20.3643,VALID,187,VALID,0,
2012-02-15, 00:29:04,VALID,917.379,VALID,0,VALID,97.6102,VALID,0,VALID,20.3448,VALID,187,VALID,0,
2012-02-15, 00:30:04,VALID,917.363,VALID,0,VALID,97.6026,VALID,0,VALID,20.3253,VALID,187,VALID,0,
2012-02-15, 00:31:04,VALID,917.357,VALID,0,VALID,97.6102,VALID,0.107441,VALID,20.3448,VALID,187,VALID,0,
2012-02-15, 00:32:04,VALID,917.375,VALID,0,VALID,97.6102,VALID,0.107441,VALID,20.3253,VALID,187,VALID,0.0707031,
2012-02-15, 00:33:04,VALID,917.349,VALID,0,VALID,97.6102,VALID,0.107441,VALID,20.3269,VALID,187,VALID,0,
2012-02-15, 00:34:04,VALID,917.376,VALID,0,VALID,97.6102,VALID,0,VALID,20.2863,VALID,187,VALID,0,
2012-02-15, 00:35:04,VALID,917.366,VALID,0,VALID,97.6255,VALID,0,VALID,20.3058,VALID,187,VALID,0,
2012-02-15, 00:36:04,VALID,917.359,VALID,0,VALID,97.6331,VALID,0,VALID,20.3058,VALID,187,VALID,0,
2012-02-15, 00:37:04,VALID,917.332,VALID,0,VALID,97.6102,VALID,0,VALID,20.2863,VALID,187,VALID,0.341797,
2012-02-15, 00:38:04,VALID,917.343,VALID,0,VALID,97.6255,VALID,0,VALID,20.2863,VALID,187,VALID,0.517187,
2012-02-15, 00:39:04,VALID,917.348,VALID,0,VALID,97.6255,VALID,0,VALID,20.2668,VALID,187,VALID,0.61875,
2012-02-15, 00:40:04,VALID,917.328,VALID,0,VALID,97.6255,VALID,0,VALID,20.2668,VALID,187,VALID,0.566406,
2012-02-15, 00:41:04,VALID,917.346,VALID,0,VALID,97.6255,VALID,0,VALID,20.2473,VALID,187,VALID,0.658984,
2012-02-15, 00:42:04,VALID,917.339,VALID,0,VALID,97.6331,VALID,0,VALID,20.2473,VALID,187,VALID,0.715625,
2012-02-15, 00:43:04,VALID,917.316,VALID,0,VALID,97.6331,VALID,0,VALID,20.2489,VALID,187,VALID,0.520312,
2012-02-15, 00:44:04,VALID,917.288,VALID,0,VALID,97.6178,VALID,0,VALID,20.2684,VALID,187,VALID,0.630469,
2012-02-15, 00:45:04,VALID,917.289,VALID,0,VALID,97.6407,VALID,0,VALID,20.2489,VALID,187,VALID,0.520312,
2012-02-15, 00:46:04,VALID,917.271,VALID,0,VALID,97.6407,VALID,0,VALID,20.2489,VALID,187,VALID,0.566406,
2012-02-15, 00:47:04,VALID,917.214,VALID,0,VALID,97.6407,VALID,0,VALID,20.2489,VALID,187,VALID,0.285937,
2012-02-15, 00:48:04,VALID,917.236,VALID,0,VALID,97.656,VALID,0,VALID,20.2894,VALID,187,VALID,0.476953,
2012-02-15, 00:49:04,VALID,917.191,VALID,0,VALID,97.6331,VALID,0,VALID,20.2473,VALID,187,VALID,0.464453,
2012-02-15, 00:50:04,VALID,917.166,VALID,0,VALID,97.6483,VALID,0,VALID,20.2684,VALID,187,VALID,0.530469,
2012-02-15, 00:51:04,VALID,917.149,VALID,0,VALID,97.6331,VALID,0,VALID,20.3074,VALID,187,VALID,0.580469,
2012-02-15, 00:52:04,VALID,917.125,VALID,0,VALID,97.6331,VALID,0,VALID,20.2879,VALID,187,VALID,0.439844,
2012-02-15, 00:53:04,VALID,917.1,VALID,0,VALID,97.656,VALID,0,VALID,20.2879,VALID,187,VALID,0.519141,
2012-02-15, 00:54:04,VALID,917.068,VALID,0,VALID,97.6483,VALID,0,VALID,20.2684,VALID,187,VALID,0.550391,
2012-02-15, 00:55:04,VALID,917.045,VALID,0,VALID,97.6407,VALID,0,VALID,20.2684,VALID,187,VALID,0.405859,
2012-02-15, 00:56:04,VALID,917.04,VALID,0,VALID,97.656,VALID,0,VALID,20.2684,VALID,187,VALID,0.323047,
2012-02-15, 00:57:04,VALID,917.022,VALID,0,VALID,97.6407,VALID,0,VALID,20.2684,VALID,187,VALID,0.348828,
2012-02-15, 00:58:04,VALID,917.012,VALID,0,VALID,97.6407,VALID,0,VALID,20.2473,VALID,187,VALID,0.120312,
2012-02-15, 00:59:04,VALID,917.024,VALID,0,VALID,97.656,VALID,0,VALID,20.2879,VALID,187,VALID,0.176563,
2012-02-15, 01:00:04,VALID,917.022,VALID,0,VALID,97.6788,VALID,0,VALID,20.2863,VALID,187,VALID,0,
2012-02-15, 01:01:04,VALID,917.023,VALID,0,VALID,97.6483,VALID,0,VALID,20.3269,VALID,187,VALID,0,
2012-02-15, 01:02:04,VALID,916.995,VALID,0,VALID,97.6483,VALID,0,VALID,20.3058,VALID,187,VALID,0.319531,
2012-02-15, 01:03:04,VALID,916.965,VALID,0,VALID,97.6483,VALID,0,VALID,20.3269,VALID,187,VALID,0.16875,
2012-02-15, 01:04:04,VALID,916.988,VALID,0,VALID,97.656,VALID,0,VALID,20.3253,VALID,187,VALID,0.234766,
2012-02-15, 01:05:04,VALID,916.965,VALID,0,VALID,97.6483,VALID,0,VALID,20.3253,VALID,187,VALID,0,
2012-02-15, 01:06:04,VALID,916.952,VALID,0,VALID,97.6407,VALID,0,VALID,20.3253,VALID,187,VALID,0.280859,
2012-02-15, 01:07:04,VALID,916.923,VALID,0,VALID,97.656,VALID,0,VALID,20.3253,VALID,187,VALID,0.197656,
2012-02-15, 01:08:04,VALID,916.904,VALID,0,VALID,97.656,VALID,0,VALID,20.3253,VALID,187,VALID,0.420703,
2012-02-15, 01:09:04,VALID,916.889,VALID,0,VALID,97.6331,VALID,0,VALID,20.2668,VALID,187,VALID,0.282422,
2012-02-15, 01:10:04,VALID,916.892,VALID,0,VALID,97.6483,VALID,0,VALID,20.2668,VALID,187,VALID,0.225781,
2012-02-15, 01:11:04,VALID,916.887,VALID,0,VALID,97.6788,VALID,0,VALID,20.2473,VALID,187,VALID,0.178516,
2012-02-15, 01:12:04,VALID,916.874,VALID,0,VALID,97.6483,VALID,0,VALID,20.2083,VALID,187,VALID,0.234766,
2012-02-15, 01:13:04,VALID,916.887,VALID,0,VALID,97.6407,VALID,0,VALID,20.1903,VALID,187,VALID,0.107422,
2012-02-15, 01:14:04,VALID,916.85,VALID,0,VALID,97.6636,VALID,0,VALID,20.2098,VALID,187,VALID,0.258203,
2012-02-15, 01:15:04,VALID,916.866,VALID,0,VALID,97.6636,VALID,0,VALID,20.2098,VALID,187,VALID,0.0179687,
2012-02-15, 01:16:04,VALID,916.901,VALID,0,VALID,97.6636,VALID,0,VALID,20.2098,VALID,187,VALID,0,
2012-02-15, 01:17:04,VALID,916.852,VALID,0,VALID,97.6636,VALID,0,VALID,20.2098,VALID,187,VALID,0,
2012-02-15, 01:18:04,VALID,916.837,VALID,0,VALID,97.656,VALID,0,VALID,20.2098,VALID,187,VALID,0,
2012-02-15, 01:19:04,VALID,916.834,VALID,0,VALID,97.6712,VALID,0,VALID,20.2098,VALID,187,VALID,0,
2012-02-15, 01:20:04,VALID,916.817,VALID,0,VALID,97.656,VALID,0,VALID,20.2278,VALID,187,VALID,0,
2012-02-15, 01:21:04,VALID,916.791,VALID,0,VALID,97.6712,VALID,0,VALID,20.2293,VALID,187,VALID,0.0269531,
2012-02-15, 01:22:04,VALID,916.757,VALID,0,VALID,97.6865,VALID,0,VALID,20.2489,VALID,187,VALID,0,
2012-02-15, 01:23:04,VALID,916.752,VALID,0,VALID,97.6788,VALID,0,VALID,20.2293,VALID,187,VALID,0,
2012-02-15, 01:24:04,VALID,916.714,VALID,0,VALID,97.6712,VALID,0,VALID,20.2489,VALID,187,VALID,0,
2012-02-15, 01:25:04,VALID,916.743,VALID,0,VALID,97.6712,VALID,0,VALID,20.2489,VALID,187,VALID,0,
2012-02-15, 01:26:04,VALID,916.715,VALID,0,VALID,97.6712,VALID,0,VALID,20.2293,VALID,187,VALID,0,
2012-02-15, 01:27:04,VALID,916.698,VALID,0,VALID,97.6712,VALID,0,VALID,20.2293,VALID,187,VALID,0,
2012-02-15, 01:28:04,VALID,916.71,VALID,0,VALID,97.6712,VALID,0,VALID,20.2293,VALID,187,VALID,0,
2012-02-15, 01:29:04,VALID,916.693,VALID,0,VALID,97.6788,VALID,0,VALID,20.1888,VALID,187,VALID,0,
2012-02-15, 01:30:04,VALID,916.639,VALID,0,VALID,97.6865,VALID,0.107441,VALID,20.1888,VALID,187,VALID,0,
2012-02-15, 01:31:04,VALID,916.621,VALID,0,VALID,97.6865,VALID,0.107441,VALID,20.1693,VALID,187,VALID,0,
2012-02-15, 01:32:04,VALID,916.605,VALID,0,VALID,97.656,VALID,0,VALID,20.1318,VALID,187,VALID,0,
2012-02-15, 01:33:04,VALID,916.577,VALID,0,VALID,97.6712,VALID,0,VALID,20.0133,VALID,187,VALID,0,
2012-02-15, 01:34:04,VALID,916.557,VALID,0,VALID,97.6483,VALID,0,VALID,19.9353,VALID,187,VALID,0,
2012-02-15, 01:35:04,VALID,916.53,VALID,0,VALID,97.6407,VALID,0,VALID,19.8573,VALID,187,VALID,0,
2012-02-15, 01:36:04,VALID,916.489,VALID,0,VALID,97.6407,VALID,0.107441,VALID,19.7598,VALID,187,VALID,0.103516,
2012-02-15, 01:37:04,VALID,916.479,VALID,0,VALID,97.6331,VALID,0,VALID,19.6818,VALID,187,VALID,0.502734,
2012-02-15, 01:38:04,VALID,916.455,VALID,0,VALID,97.6483,VALID,0,VALID,19.6623,VALID,187,VALID,0.660156,
2012-02-15, 01:39:04,VALID,916.451,VALID,0,VALID,97.6865,VALID,0,VALID,19.7403,VALID,187,VALID,0.655859,
2012-02-15, 01:40:04,VALID,916.45,VALID,0,VALID,97.7017,VALID,0.107441,VALID,19.8573,VALID,187,VALID,0.662891,
2012-02-15, 01:41:04,VALID,916.412,VALID,0,VALID,97.7093,VALID,0.107441,VALID,19.8963,VALID,187,VALID,0.569531,
2012-02-15, 01:42:04,VALID,916.402,VALID,0,VALID,97.7246,VALID,0,VALID,19.9158,VALID,187,VALID,0.63125,
2012-02-15, 01:43:04,VALID,916.377,VALID,0,VALID,97.7246,VALID,0,VALID,19.9173,VALID,187,VALID,0.44375,
2012-02-15, 01:44:04,VALID,916.312,VALID,0,VALID,97.7093,VALID,0,VALID,19.8783,VALID,187,VALID,0.842969,
2012-02-15, 01:45:05,VALID,916.331,VALID,0,VALID,97.7093,VALID,0,VALID,19.8393,VALID,187,VALID,0.497656,
2012-02-15, 01:46:05,VALID,916.325,VALID,0,VALID,97.7246,VALID,0,VALID,19.7418,VALID,187,VALID,0.714844,
2012-02-15, 01:47:05,VALID,916.306,VALID,0,VALID,97.6941,VALID,0,VALID,19.7028,VALID,187,VALID,0.466797,
2012-02-15, 01:48:05,VALID,916.311,VALID,0,VALID,97.7322,VALID,0,VALID,19.6833,VALID,187,VALID,0.676562,
2012-02-15, 01:49:05,VALID,916.296,VALID,0,VALID,97.7169,VALID,0,VALID,19.6623,VALID,187,VALID,0.418359,
2012-02-15, 01:50:05,VALID,916.274,VALID,0,VALID,97.7322,VALID,0,VALID,19.6638,VALID,187,VALID,0.546875,
2012-02-15, 01:51:05,VALID,916.281,VALID,0,VALID,97.7551,VALID,0,VALID,19.6833,VALID,187,VALID,0.471484,
2012-02-15, 01:52:05,VALID,916.243,VALID,0,VALID,97.7551,VALID,0,VALID,19.7418,VALID,187,VALID,0.253516,
2012-02-15, 01:53:05,VALID,916.223,VALID,0,VALID,97.7627,VALID,0,VALID,19.7808,VALID,187,VALID,0,
2012-02-15, 01:54:05,VALID,916.219,VALID,0,VALID,97.7398,VALID,0,VALID,19.7418,VALID,187,VALID,0.58125,
2012-02-15, 01:55:05,VALID,916.18,VALID,0,VALID,97.7703,VALID,0,VALID,19.7028,VALID,187,VALID,0.606641,
2012-02-15, 01:56:05,VALID,916.175,VALID,0,VALID,97.7627,VALID,0,VALID,19.6833,VALID,187,VALID,0.423047,
2012-02-15, 01:57:05,VALID,916.149,VALID,0,VALID,97.7474,VALID,0,VALID,19.6848,VALID,187,VALID,0.346484,
2012-02-15, 01:58:05,VALID,916.129,VALID,0,VALID,97.7856,VALID,0,VALID,19.6638,VALID,187,VALID,0.0355469,
2012-02-15, 01:59:05,VALID,916.126,VALID,0,VALID,97.7627,VALID,0,VALID,19.6443,VALID,187,VALID,0,
2012-02-15, 02:00:05,VALID,916.125,VALID,0,VALID,97.7551,VALID,0,VALID,19.6638,VALID,187,VALID,0,
2012-02-15, 02:01:05,VALID,916.124,VALID,0,VALID,97.7627,VALID,0,VALID,19.6833,VALID,187,VALID,0.194922,
2012-02-15, 02:02:05,VALID,916.157,VALID,0,VALID,97.7703,VALID,0,VALID,19.7043,VALID,187,VALID,0.453906,
2012-02-15, 02:03:05,VALID,916.134,VALID,0,VALID,97.7551,VALID,0,VALID,19.7223,VALID,187,VALID,0.505469,
2012-02-15, 02:04:05,VALID,916.117,VALID,0,VALID,97.7779,VALID,0,VALID,19.7418,VALID,187,VALID,0.822656,
2012-02-15, 02:05:05,VALID,916.119,VALID,0,VALID,97.7627,VALID,0,VALID,19.7403,VALID,187,VALID,0.979688,
2012-02-15, 02:06:05,VALID,916.108,VALID,0,VALID,97.7627,VALID,0,VALID,19.7808,VALID,190,VALID,0.752344,
2012-02-15, 02:07:05,VALID,916.093,VALID,0,VALID,97.7551,VALID,0,VALID,19.8198,VALID,190,VALID,0.367188,
2012-02-15, 02:08:05,VALID,916.058,VALID,0,VALID,97.7779,VALID,0,VALID,19.8198,VALID,190,VALID,0.400391,
2012-02-15, 02:09:05,VALID,916.035,VALID,0,VALID,97.7856,VALID,0,VALID,19.8198,VALID,190,VALID,0.682422,
2012-02-15, 02:10:05,VALID,916.006,VALID,0,VALID,97.7779,VALID,0,VALID,19.8783,VALID,190,VALID,0.640625,
2012-02-15, 02:11:05,VALID,915.974,VALID,0,VALID,97.7779,VALID,0,VALID,19.8978,VALID,190,VALID,0.361328,
2012-02-15, 02:12:05,VALID,915.96,VALID,0,VALID,97.7856,VALID,0,VALID,19.9173,VALID,190,VALID,0.284375,
2012-02-15, 02:13:05,VALID,915.928,VALID,0,VALID,97.7779,VALID,0,VALID,19.9353,VALID,190,VALID,0.00351562,
2012-02-15, 02:14:05,VALID,915.895,VALID,0,VALID,97.7703,VALID,0,VALID,19.9548,VALID,190,VALID,0.396094,
2012-02-15, 02:15:05,VALID,915.889,VALID,0,VALID,97.7779,VALID,0,VALID,19.9743,VALID,190,VALID,0.716016,
2012-02-15, 02:16:05,VALID,915.881,VALID,0,VALID,97.7703,VALID,0,VALID,19.9743,VALID,190,VALID,0.590625,
2012-02-15, 02:17:05,VALID,915.873,VALID,0,VALID,97.7856,VALID,0,VALID,19.9953,VALID,190,VALID,0.477344,
2012-02-15, 02:18:05,VALID,915.839,VALID,0,VALID,97.7856,VALID,0,VALID,19.9743,VALID,190,VALID,0.290234,
2012-02-15, 02:19:05,VALID,915.832,VALID,0,VALID,97.7856,VALID,0,VALID,19.9953,VALID,190,VALID,0.0347656,
2012-02-15, 02:20:05,VALID,915.831,VALID,0,VALID,97.7703,VALID,0,VALID,19.9743,VALID,190,VALID,0.301562,
2012-02-15, 02:21:05,VALID,915.797,VALID,0,VALID,97.7703,VALID,0,VALID,19.9743,VALID,190,VALID,0.260156,
2012-02-15, 02:22:05,VALID,915.799,VALID,0,VALID,97.7627,VALID,0,VALID,20.0148,VALID,190,VALID,0.322656,
2012-02-15, 02:23:05,VALID,915.795,VALID,0,VALID,97.7551,VALID,0,VALID,20.0133,VALID,190,VALID,0.339844,
2012-02-15, 02:24:05,VALID,915.808,VALID,0,VALID,97.7779,VALID,0,VALID,20.0328,VALID,190,VALID,0.273438,
2012-02-15, 02:25:05,VALID,915.793,VALID,0,VALID,97.7856,VALID,0,VALID,20.0523,VALID,190,VALID,0.0753906,
2012-02-15, 02:26:05,VALID,915.795,VALID,0,VALID,97.7474,VALID,0,VALID,20.0928,VALID,190,VALID,0.333203,
2012-02-15, 02:27:05,VALID,915.81,VALID,0,VALID,97.7856,VALID,0,VALID,20.0718,VALID,190,VALID,0.213672,
2012-02-15, 02:28:05,VALID,915.773,VALID,0,VALID,97.7703,VALID,0,VALID,20.0913,VALID,190,VALID,0.046875,
2012-02-15, 02:29:05,VALID,915.753,VALID,0,VALID,97.7627,VALID,0,VALID,20.1108,VALID,190,VALID,0,
2012-02-15, 02:30:05,VALID,915.724,VALID,0,VALID,97.7627,VALID,0,VALID,20.1303,VALID,190,VALID,0,
2012-02-15, 02:31:05,VALID,915.715,VALID,0,VALID,97.7703,VALID,0,VALID,20.1318,VALID,190,VALID,0.0933594,
2012-02-15, 02:32:05,VALID,915.715,VALID,0,VALID,97.7551,VALID,0.107441,VALID,20.1303,VALID,190,VALID,0,
2012-02-15, 02:33:05,VALID,915.716,VALID,0,VALID,97.7703,VALID,0,VALID,20.1303,VALID,190,VALID,0.287891,
2012-02-15, 02:34:05,VALID,915.698,VALID,0,VALID,97.7703,VALID,0.107441,VALID,20.1303,VALID,190,VALID,0.303516,
2012-02-15, 02:35:05,VALID,915.664,VALID,0,VALID,97.7551,VALID,0,VALID,20.1498,VALID,190,VALID,0.333984,
2012-02-15, 02:36:05,VALID,915.689,VALID,0,VALID,97.7856,VALID,0,VALID,20.1498,VALID,190,VALID,0.58125,
2012-02-15, 02:37:05,VALID,915.69,VALID,0,VALID,97.7856,VALID,0,VALID,20.1498,VALID,190,VALID,0.548437,
2012-02-15, 02:38:05,VALID,915.687,VALID,0,VALID,97.7779,VALID,0.107441,VALID,20.1693,VALID,190,VALID,0.405469,
2012-02-15, 02:39:05,VALID,915.704,VALID,0,VALID,97.7779,VALID,0,VALID,20.1303,VALID,190,VALID,0.80625,
2012-02-15, 02:40:05,VALID,915.663,VALID,0,VALID,97.7779,VALID,0,VALID,20.1708,VALID,191,VALID,0.367188,
2012-02-15, 02:41:05,VALID,915.69,VALID,0,VALID,97.7551,VALID,0.107441,VALID,20.1693,VALID,190,VALID,0.369141,
2012-02-15, 02:42:05,VALID,915.743,VALID,0,VALID,97.7856,VALID,0,VALID,20.1693,VALID,191,VALID,0.691016,
2012-02-15, 02:43:05,VALID,915.723,VALID,0,VALID,97.7703,VALID,0,VALID,20.1693,VALID,191,VALID,0.638281,
2012-02-15, 02:44:05,VALID,915.737,VALID,0,VALID,97.7703,VALID,0,VALID,20.1903,VALID,191,VALID,0.432813,
2012-02-15, 02:45:05,VALID,915.752,VALID,0,VALID,97.7779,VALID,0,VALID,20.1693,VALID,191,VALID,0.394922,
2012-02-15, 02:46:05,VALID,915.778,VALID,0,VALID,97.7627,VALID,0,VALID,20.1693,VALID,191,VALID,0.712109,
2012-02-15, 02:47:05,VALID,915.751,VALID,0,VALID,97.7703,VALID,0.107441,VALID,20.1888,VALID,191,VALID,0.655859,
2012-02-15, 02:48:05,VALID,915.745,VALID,0,VALID,97.7551,VALID,0,VALID,20.1888,VALID,195,VALID,0.842578,
2012-02-15, 02:49:05,VALID,915.751,VALID,0,VALID,97.7627,VALID,0,VALID,20.1693,VALID,213,VALID,0.391016,
2012-02-15, 02:50:05,VALID,915.726,VALID,0,VALID,97.7551,VALID,0,VALID,20.1903,VALID,219,VALID,0.585547,
2012-02-15, 02:51:05,VALID,915.773,VALID,0,VALID,97.7856,VALID,0,VALID,20.1888,VALID,219,VALID,0.263672,
2012-02-15, 02:52:05,VALID,915.789,VALID,0,VALID,97.7551,VALID,0,VALID,20.2083,VALID,219,VALID,0.354297,
2012-02-15, 02:53:05,VALID,915.806,VALID,0,VALID,97.7703,VALID,0,VALID,20.1888,VALID,219,VALID,0.260938,
2012-02-15, 02:54:05,VALID,915.817,VALID,0,VALID,97.7703,VALID,0,VALID,20.2083,VALID,219,VALID,0.351563,
2012-02-15, 02:55:05,VALID,915.818,VALID,0,VALID,97.7551,VALID,0,VALID,20.2083,VALID,219,VALID,0.33125,
2012-02-15, 02:56:05,VALID,915.842,VALID,0,VALID,97.7932,VALID,0,VALID,20.2293,VALID,219,VALID,0.414063,
2012-02-15, 02:57:05,VALID,915.851,VALID,0,VALID,97.7779,VALID,0,VALID,20.2278,VALID,219,VALID,0.555469,
2012-02-15, 02:58:05,VALID,915.844,VALID,0,VALID,97.7627,VALID,0,VALID,20.2278,VALID,219,VALID,0.516406,
2012-02-15, 02:59:05,VALID,915.822,VALID,0,VALID,97.7703,VALID,0,VALID,20.2473,VALID,219,VALID,0.421875,
2012-02-15, 03:00:05,VALID,915.846,VALID,0,VALID,97.7703,VALID,0,VALID,20.2473,VALID,219,VALID,0.313281,
2012-02-15, 03:01:05,VALID,915.861,VALID,0,VALID,97.7856,VALID,0,VALID,20.2278,VALID,219,VALID,0.204297,
2012-02-15, 03:02:05,VALID,915.844,VALID,0,VALID,97.7703,VALID,0,VALID,20.2473,VALID,219,VALID,0.350781,
2012-02-15, 03:03:05,VALID,915.846,VALID,0,VALID,97.7551,VALID,0,VALID,20.2473,VALID,219,VALID,0.388281,
2012-02-15, 03:04:05,VALID,915.853,VALID,0,VALID,97.7856,VALID,0.107441,VALID,20.2473,VALID,219,VALID,0.0855469,
2012-02-15, 03:05:05,VALID,915.858,VALID,0,VALID,97.7779,VALID,0,VALID,20.2668,VALID,219,VALID,0,
2012-02-15, 03:06:05,VALID,915.797,VALID,0,VALID,97.7779,VALID,0,VALID,20.2668,VALID,219,VALID,0,
2012-02-15, 03:07:05,VALID,915.824,VALID,0,VALID,97.7551,VALID,0,VALID,20.2278,VALID,219,VALID,0,
2012-02-15, 03:08:05,VALID,915.808,VALID,0,VALID,97.7703,VALID,0,VALID,20.2278,VALID,219,VALID,0,
2012-02-15, 03:09:05,VALID,915.784,VALID,0,VALID,97.7779,VALID,0,VALID,20.2083,VALID,219,VALID,0,
2012-02-15, 03:10:05,VALID,915.79,VALID,0,VALID,97.7703,VALID,0,VALID,20.1888,VALID,219,VALID,0,
2012-02-15, 03:11:05,VALID,915.765,VALID,0,VALID,97.7779,VALID,0,VALID,20.1888,VALID,219,VALID,0,
2012-02-15, 03:12:05,VALID,915.785,VALID,0,VALID,97.7779,VALID,0,VALID,20.1888,VALID,219,VALID,0.134375,
2012-02-15, 03:13:05,VALID,915.796,VALID,0,VALID,97.7779,VALID,0,VALID,20.2098,VALID,219,VALID,0.573828,
2012-02-15, 03:14:05,VALID,915.789,VALID,0,VALID,97.7932,VALID,0,VALID,20.1903,VALID,219,VALID,0.692969,
2012-02-15, 03:15:05,VALID,915.787,VALID,0,VALID,97.7856,VALID,0,VALID,20.1903,VALID,219,VALID,0.638672,
2012-02-15, 03:16:05,VALID,915.796,VALID,0,VALID,97.7779,VALID,0,VALID,20.1903,VALID,219,VALID,0.46875,
2012-02-15, 03:17:05,VALID,915.808,VALID,0,VALID,97.7779,VALID,0,VALID,20.2309,VALID,219,VALID,0.483203,
2012-02-15, 03:18:05,VALID,915.818,VALID,0,VALID,97.7779,VALID,0,VALID,20.1903,VALID,219,VALID,0.549219,
2012-02-15, 03:19:05,VALID,915.813,VALID,0,VALID,97.7932,VALID,0,VALID,20.1708,VALID,219,VALID,0.560156,
2012-02-15, 03:20:05,VALID,915.819,VALID,0,VALID,97.7856,VALID,0,VALID,20.1513,VALID,219,VALID,0.611719,
2012-02-15, 03:21:05,VALID,915.829,VALID,0,VALID,97.7856,VALID,0,VALID,20.1724,VALID,219,VALID,0.332031,
2012-02-15, 03:22:05,VALID,915.805,VALID,0,VALID,97.7627,VALID,0,VALID,20.1318,VALID,219,VALID,0.798437,
2012-02-15, 03:23:05,VALID,915.788,VALID,0,VALID,97.7856,VALID,0,VALID,20.1318,VALID,219,VALID,0.382813,
2012-02-15, 03:24:05,VALID,915.775,VALID,0,VALID,97.7856,VALID,0,VALID,20.1513,VALID,219,VALID,0.777344,
2012-02-15, 03:25:05,VALID,915.741,VALID,0,VALID,97.8008,VALID,0,VALID,20.1318,VALID,219,VALID,0.436328,
2012-02-15, 03:26:05,VALID,915.718,VALID,0,VALID,97.7856,VALID,0,VALID,20.1513,VALID,219,VALID,0.148828,
2012-02-15, 03:27:05,VALID,915.693,VALID,0,VALID,97.7779,VALID,0,VALID,20.1513,VALID,219,VALID,0.0382813,
2012-02-15, 03:28:05,VALID,915.649,VALID,0,VALID,97.8084,VALID,0,VALID,20.1498,VALID,219,VALID,0.44375,
2012-02-15, 03:29:05,VALID,915.618,VALID,0,VALID,97.7932,VALID,0,VALID,20.1693,VALID,219,VALID,0.45,
2012-02-15, 03:30:05,VALID,915.572,VALID,0,VALID,97.7779,VALID,0,VALID,20.1303,VALID,219,VALID,0.639063,
2012-02-15, 03:31:05,VALID,915.598,VALID,0,VALID,97.8008,VALID,0,VALID,20.1513,VALID,219,VALID,0.741797,
2012-02-15, 03:32:05,VALID,915.557,VALID,0,VALID,97.8313,VALID,0,VALID,20.1303,VALID,219,VALID,0.371484,
2012-02-15, 03:33:05,VALID,915.536,VALID,0,VALID,97.8008,VALID,0,VALID,20.1108,VALID,219,VALID,0.558594,
2012-02-15, 03:34:05,VALID,915.538,VALID,0,VALID,97.8084,VALID,0,VALID,20.1108,VALID,219,VALID,0.46875,
2012-02-15, 03:35:05,VALID,915.494,VALID,0,VALID,97.816,VALID,0,VALID,20.1303,VALID,219,VALID,0.570703,
2012-02-15, 03:36:05,VALID,915.494,VALID,0,VALID,97.7932,VALID,0,VALID,20.1303,VALID,219,VALID,0.628906,
2012-02-15, 03:37:05,VALID,915.472,VALID,0,VALID,97.7932,VALID,0,VALID,20.1303,VALID,219,VALID,0.908984,
2012-02-15, 03:38:05,VALID,915.458,VALID,0,VALID,97.7932,VALID,0.107441,VALID,20.1108,VALID,219,VALID,0.852734,
2012-02-15, 03:39:05,VALID,915.446,VALID,0,VALID,97.7856,VALID,0,VALID,20.0913,VALID,219,VALID,0.772656,
2012-02-15, 03:40:05,VALID,915.435,VALID,0,VALID,97.8008,VALID,0,VALID,20.0913,VALID,219,VALID,0.665234,
2012-02-15, 03:41:05,VALID,915.444,VALID,0,VALID,97.816,VALID,0,VALID,20.1123,VALID,219,VALID,0.912109,
2012-02-15, 03:42:05,VALID,915.449,VALID,0,VALID,97.8008,VALID,0,VALID,20.0718,VALID,219,VALID,1.0168,
2012-02-15, 03:43:05,VALID,915.424,VALID,0,VALID,97.7856,VALID,0,VALID,20.0733,VALID,219,VALID,1.01719,
2012-02-15, 03:44:05,VALID,915.415,VALID,0,VALID,97.8084,VALID,0,VALID,20.0733,VALID,219,VALID,0.691016,
2012-02-15, 03:45:05,VALID,915.403,VALID,0,VALID,97.8237,VALID,0,VALID,20.0733,VALID,219,VALID,0.517578,
2012-02-15, 03:46:05,VALID,915.401,VALID,0,VALID,97.8008,VALID,0,VALID,20.0733,VALID,219,VALID,0.573438,